Location: Ab? ar R?sh Ba?r?
(24.1861°N, 32.8847°E)
Time: 23:56:21
(UTC+00:00)

Lacrosse 4 Rocket - Pass Details

Date: 24 October 2021
Orbit: 537 x 619 km, 68.0° (Epoch: 05 December)

Event Time Altitude Azimuth Distance (km) Brightness Sun altitude
Rises 15:57:15 0° 5° (N) 2,835 4.8 -10.4°
Reaches altitude 10° 16:00:41 10° 34° (NNE) 1,948 3.7 -11.2°
Enters shadow 16:02:09 13° 53° (NE) 1,783 3.4 -11.5°
